Home   Weather   Hanoi   Past weeks
Flag for Vietnam

Past Weather in Hanoi, Vietnam — Yesterday and Last 2 Weeks

Now
97 °F

Sunny.


Feels Like: 115 °F
Forecast: 98 / 84 °F
Wind: 6 mph from North

Location: Ha Noi Airport

Current Time: Jun 16, 2019 at 1:51:45 pm

Latest Report: Jun 16, 2019 at 1:00 pm


Visibility: 10 mi

Pressure: 29.53 "Hg

Humidity: 56%

Dew Point: 79 °F

Location of HanoiLocation

Past Weather in Hanoi — Graph

°F

Hanoi Temperature Yesterday

Maximum temperature yesterday: 95 °F (at 12:00 pm)
Minimum temperature yesterday: 82 °F (at 5:00 am)
Average temperature yesterday: 89 °F

High & Low Weather Summary for the Past Weeks

 TemperatureHumidityPressure
High100 °F (Jun 9, 2:00 pm)100% (Jun 1, 6:00 pm)29.80 "Hg (Jun 1, 6:00 pm)
Low73 °F (Jun 1, 5:30 pm)47% (Jun 9, 4:30 pm)29.45 "Hg (Jun 10, 4:30 pm)
Average86 °F80%29.63 "Hg
* Reported Jun 1 12:00 pm — Jun 16 12:30 pm, Hanoi. Weather by CustomWeather, © 2019

Note: Actual official high and low records may vary slightly from our data, if they occured in-between our weather recording intervals... More about our weather records

Advertising

Hanoi Weather History for the Previous 24 Hours

Scroll right to see more
 ConditionsComfort  
Time TempWeatherWind HumidityBarometerVisibility
12:30 pm
Sun, Jun 16
95 °FPassing clouds.7 mph63%29.56 "HgN/A
12:00 pm95 °FPassing clouds.5 mph60%29.56 "HgN/A
11:30 am93 °FScattered clouds.5 mph67%29.56 "HgN/A
11:00 am93 °FScattered clouds.6 mph63%29.56 "HgN/A
10:00 am93 °FPassing clouds.7 mph67%29.56 "HgN/A
9:30 am91 °FPassing clouds.8 mph71%29.56 "HgN/A
9:00 am90 °FClear.7 mph75%29.56 "Hg5 mi
8:30 am88 °FClear.7 mph79%29.56 "Hg5 mi
8:00 am86 °FClear.6 mph84%29.56 "Hg5 mi
7:30 am86 °FClear.6 mph84%29.56 "Hg5 mi
7:00 am86 °FClear.7 mph84%29.56 "Hg6 mi
6:30 am84 °FClear.6 mph94%29.56 "Hg5 mi
6:00 am84 °FClear.6 mph94%29.56 "Hg6 mi
5:30 am84 °FClear.6 mph89%29.53 "Hg5 mi
5:00 am84 °FClear.6 mph89%29.50 "Hg6 mi
4:30 am84 °FClear.6 mph89%29.50 "Hg6 mi
4:00 am84 °FClear.6 mph94%29.50 "Hg6 mi
3:30 am84 °FClear.5 mph94%29.50 "Hg10 mi
3:00 am84 °FClear.6 mph89%29.53 "Hg10 mi
2:30 am84 °FClear.7 mph89%29.53 "Hg10 mi
2:00 am84 °FPassing clouds.8 mph89%29.53 "HgN/A
1:30 am86 °FClear.7 mph89%29.56 "Hg10 mi
1:00 am86 °FClear.7 mph84%29.53 "Hg10 mi
12:30 am86 °FClear.8 mph89%29.56 "Hg10 mi
12:00 am86 °FClear.7 mph89%29.56 "Hg5 mi
11:30 pm
Sat, Jun 15
86 °FClear.9 mph84%29.56 "Hg10 mi
11:00 pm88 °FClear.9 mph79%29.56 "Hg10 mi
10:30 pm88 °FClear.10 mph79%29.56 "Hg10 mi
10:00 pm88 °FClear.10 mph79%29.56 "Hg10 mi
9:30 pm88 °FClear.12 mph79%29.56 "Hg10 mi
9:00 pm88 °FClear.14 mph75%29.53 "Hg10 mi
8:30 pm90 °FPassing clouds.14 mph71%29.53 "Hg6 mi
7:30 pm91 °FClear.6 mph67%29.50 "Hg5 mi
7:00 pm91 °FClear.5 mph67%29.50 "Hg4 mi
6:30 pm93 °FSunny.5 mph63%29.50 "Hg10 mi
6:00 pm93 °FSunny.2 mph63%29.50 "Hg10 mi
5:30 pm95 °FSunny.2 mph60%29.47 "Hg10 mi
5:00 pm95 °FPassing clouds.5 mph60%29.47 "HgN/A
4:30 pm93 °FPassing clouds.5 mph63%29.50 "HgN/A
4:00 pm93 °FPassing clouds.6 mph63%29.50 "HgN/A
3:30 pm95 °FPassing clouds.3 mph60%29.50 "HgN/A
3:00 pm95 °FPassing clouds.3 mph60%29.53 "HgN/A
2:30 pm95 °FPassing clouds.6 mph60%29.53 "HgN/A
2:00 pm95 °FPassing clouds.6 mph60%29.56 "HgN/A
1:30 pm95 °FPassing clouds.6 mph60%29.56 "HgN/A
1:00 pm95 °FPassing clouds.5 mph60%29.56 "HgN/A
Weather by CustomWeather, © 2019

See weather overview